Time,TemperatureF,DewpointF,PressureIn,WindDirection,WindDirectionDegrees,WindSpeedMPH,WindSpeedGustMPH,Humidity,HourlyPrecipIn,Conditions,Clouds,dailyrainin,SoftwareType,DateUTC
2013-02-05 00:01:00,43.0,41.0,29.85,ESE,123,1.0,3.0,91,0.00,,,0.00,,2013-02-05 08:01:00,
2013-02-05 00:11:00,43.0,41.0,29.85,ESE,123,1.0,3.0,91,0.00,,,0.00,,2013-02-05 08:11:00,
2013-02-05 00:21:00,44.0,42.0,29.86,SSE,155,1.0,6.0,92,0.00,,,0.00,,2013-02-05 08:21:00,
2013-02-05 00:31:00,44.0,42.0,29.86,ESE,121,3.0,8.0,92,0.00,,,0.00,,2013-02-05 08:31:00,
2013-02-05 00:41:00,44.0,42.0,29.86,ESE,121,3.0,8.0,92,0.00,,,0.00,,2013-02-05 08:41:00,
2013-02-05 00:52:00,45.0,43.0,29.85,ESE,110,1.0,5.0,91,0.00,,,0.00,,2013-02-05 08:52:00,
2013-02-05 01:02:00,45.0,42.0,29.85,SSE,147,3.0,9.0,89,0.00,,,0.00,,2013-02-05 09:02:00,
2013-02-05 01:11:00,45.0,42.0,29.85,SE,144,3.0,8.0,89,0.00,,,0.00,,2013-02-05 09:11:00,
2013-02-05 01:21:00,45.0,42.0,29.85,SE,144,3.0,8.0,89,0.00,,,0.00,,2013-02-05 09:21:00,
2013-02-05 01:31:00,45.0,42.0,29.85,ESE,117,2.0,6.0,88,0.00,,,0.00,,2013-02-05 09:31:00,
2013-02-05 01:41:00,45.0,42.0,29.85,ESE,117,2.0,6.0,88,0.00,,,0.00,,2013-02-05 09:41:00,
2013-02-05 01:51:00,45.0,42.0,29.85,SSE,156,2.0,4.0,89,0.00,,,0.00,,2013-02-05 09:51:00,
2013-02-05 02:01:00,44.0,41.0,29.85,SE,144,1.0,4.0,89,0.00,,,0.00,,2013-02-05 10:01:00,
2013-02-05 02:11:00,44.0,41.0,29.85,SE,144,1.0,4.0,89,0.00,,,0.00,,2013-02-05 10:11:00,
2013-02-05 02:21:00,44.0,41.0,29.85,SE,144,1.0,4.0,89,0.00,,,0.00,,2013-02-05 10:21:00,
2013-02-05 02:31:00,44.0,41.0,29.85,SE,135,2.0,4.0,89,0.00,,,0.00,,2013-02-05 10:31:00,
2013-02-05 02:42:00,44.0,41.0,29.85,SE,135,2.0,4.0,89,0.00,,,0.00,,2013-02-05 10:42:00,
2013-02-05 02:52:00,45.0,42.0,29.85,ESE,107,3.0,5.0,88,0.00,,,0.00,,2013-02-05 10:52:00,
2013-02-05 03:01:00,45.0,41.0,29.85,ESE,115,2.0,6.0,87,0.00,,,0.00,,2013-02-05 11:01:00,
2013-02-05 03:11:00,45.0,41.0,29.85,ESE,115,2.0,6.0,87,0.00,,,0.00,,2013-02-05 11:11:00,
2013-02-05 03:21:00,46.0,42.0,29.84,SE,144,3.0,9.0,86,0.00,,,0.00,,2013-02-05 11:21:00,
2013-02-05 03:32:00,46.0,42.0,29.83,SSE,153,4.0,7.0,85,0.00,,,0.00,,2013-02-05 11:32:00,
2013-02-05 03:41:00,46.0,42.0,29.83,SSE,153,4.0,7.0,85,0.00,,,0.00,,2013-02-05 11:41:00,
2013-02-05 03:52:00,46.0,41.0,29.83,SSE,147,1.0,5.0,84,0.00,,,0.00,,2013-02-05 11:52:00,
2013-02-05 04:01:00,46.0,42.0,29.85,SE,143,0.0,7.0,85,0.00,,,0.00,,2013-02-05 12:01:00,
2013-02-05 04:12:00,46.0,42.0,29.85,SE,143,0.0,7.0,85,0.00,,,0.00,,2013-02-05 12:12:00,
2013-02-05 04:21:00,46.0,42.0,29.84,SSE,149,1.0,5.0,85,0.00,,,0.00,,2013-02-05 12:21:00,
2013-02-05 04:31:00,45.0,41.0,29.84,ESE,109,2.0,7.0,85,0.00,,,0.00,,2013-02-05 12:31:00,
2013-02-05 04:41:00,45.0,41.0,29.84,ESE,109,2.0,7.0,85,0.00,,,0.00,,2013-02-05 12:41:00,
2013-02-05 04:52:00,46.0,42.0,29.84,ESE,120,2.0,10.0,85,0.00,,,0.00,,2013-02-05 12:52:00,
2013-02-05 05:01:00,45.0,41.0,29.85,SE,124,1.0,6.0,87,0.01,,,0.01,,2013-02-05 13:01:00,
2013-02-05 05:11:00,45.0,41.0,29.85,SE,124,1.0,6.0,87,0.01,,,0.01,,2013-02-05 13:11:00,
2013-02-05 05:21:00,45.0,42.0,29.84,SE,135,3.0,7.0,88,0.02,,,0.02,,2013-02-05 13:21:00,
2013-02-05 05:31:00,44.0,41.0,29.84,SSE,153,2.0,10.0,89,0.03,,,0.03,,2013-02-05 13:31:00,
2013-02-05 05:41:00,44.0,41.0,29.84,SSE,153,2.0,10.0,89,0.03,,,0.03,,2013-02-05 13:41:00,
2013-02-05 05:51:00,44.0,41.0,29.83,SE,129,3.0,9.0,89,0.03,,,0.03,,2013-02-05 13:51:00,
2013-02-05 06:01:00,44.0,41.0,29.83,SE,140,4.0,8.0,90,0.02,,,0.03,,2013-02-05 14:01:00,
2013-02-05 06:12:00,44.0,41.0,29.83,SE,140,4.0,8.0,90,0.02,,,0.03,,2013-02-05 14:12:00,
2013-02-05 06:21:00,44.0,41.0,29.83,SSE,166,3.0,12.0,90,0.02,,,0.04,,2013-02-05 14:21:00,
2013-02-05 06:31:00,44.0,41.0,29.83,ESE,120,2.0,7.0,90,0.01,,,0.04,,2013-02-05 14:31:00,
2013-02-05 06:41:00,44.0,41.0,29.83,ESE,120,2.0,7.0,90,0.01,,,0.04,,2013-02-05 14:41:00,
2013-02-05 06:52:00,44.0,41.0,29.82,NE,49,4.0,10.0,90,0.01,,,0.04,,2013-02-05 14:52:00,
2013-02-05 07:01:00,44.0,42.0,29.82,East,89,1.0,4.0,91,0.01,,,0.04,,2013-02-05 15:01:00,
2013-02-05 07:11:00,44.0,42.0,29.82,East,89,1.0,4.0,91,0.01,,,0.04,,2013-02-05 15:11:00,
2013-02-05 07:21:00,44.0,42.0,29.81,ESE,118,0.0,4.0,91,0.00,,,0.04,,2013-02-05 15:21:00,
2013-02-05 07:32:00,44.0,42.0,29.81,ESE,112,1.0,5.0,92,0.00,,,0.04,,2013-02-05 15:32:00,
2013-02-05 07:41:00,44.0,42.0,29.81,ESE,112,1.0,5.0,92,0.00,,,0.04,,2013-02-05 15:41:00,
2013-02-05 07:52:00,44.0,42.0,29.82,ESE,107,1.0,3.0,92,0.01,,,0.05,,2013-02-05 15:52:00,
2013-02-05 08:01:00,44.0,42.0,29.83,South,173,1.0,5.0,93,0.02,,,0.06,,2013-02-05 16:01:00,
2013-02-05 08:11:00,44.0,42.0,29.83,South,173,1.0,5.0,93,0.02,,,0.06,,2013-02-05 16:11:00,
2013-02-05 08:22:00,43.0,41.0,29.83,East,92,0.0,5.0,93,0.03,,,0.07,,2013-02-05 16:22:00,
2013-02-05 08:32:00,43.0,41.0,29.83,East,96,2.0,5.0,94,0.03,,,0.08,,2013-02-05 16:32:00,
2013-02-05 08:41:00,43.0,41.0,29.83,East,96,2.0,5.0,94,0.03,,,0.08,,2013-02-05 16:41:00,
2013-02-05 08:51:00,43.0,41.0,29.82,SE,138,1.0,8.0,93,0.03,,,0.08,,2013-02-05 16:51:00,
2013-02-05 09:01:00,44.0,42.0,29.82,SE,143,2.0,9.0,93,0.02,,,0.08,,2013-02-05 17:01:00,
2013-02-05 09:11:00,44.0,42.0,29.82,SE,143,2.0,9.0,93,0.02,,,0.08,,2013-02-05 17:11:00,
2013-02-05 09:21:00,44.0,42.0,29.83,SE,135,3.0,12.0,91,0.01,,,0.08,,2013-02-05 17:21:00,
2013-02-05 09:32:00,44.0,41.0,29.83,SSW,197,2.0,13.0,90,0.00,,,0.08,,2013-02-05 17:32:00,
2013-02-05 09:41:00,44.0,41.0,29.83,SSW,197,2.0,13.0,90,0.00,,,0.08,,2013-02-05 17:41:00,
2013-02-05 09:52:00,45.0,42.0,29.83,ESE,117,1.0,7.0,90,0.00,,,0.08,,2013-02-05 17:52:00,
2013-02-05 10:01:00,45.0,42.0,29.83,SSE,150,5.0,11.0,88,0.00,,,0.08,,2013-02-05 18:01:00,
2013-02-05 10:11:00,45.0,42.0,29.83,SSE,150,5.0,11.0,88,0.00,,,0.08,,2013-02-05 18:11:00,
2013-02-05 10:21:00,46.0,42.0,29.83,SSE,159,3.0,14.0,87,0.00,,,0.08,,2013-02-05 18:21:00,
2013-02-05 10:32:00,47.0,43.0,29.83,SSE,152,3.0,8.0,86,0.00,,,0.08,,2013-02-05 18:32:00,
2013-02-05 10:42:00,47.0,43.0,29.83,SSE,152,3.0,8.0,86,0.00,,,0.08,,2013-02-05 18:42:00,
2013-02-05 10:51:00,48.0,44.0,29.84,SE,130,5.0,11.0,85,0.00,,,0.08,,2013-02-05 18:51:00,
2013-02-05 11:01:00,48.0,44.0,29.84,SE,130,3.0,9.0,86,0.00,,,0.08,,2013-02-05 19:01:00,
2013-02-05 11:11:00,48.0,44.0,29.84,SE,130,3.0,9.0,86,0.00,,,0.08,,2013-02-05 19:11:00,
2013-02-05 11:21:00,48.0,44.0,29.84,SE,130,3.0,9.0,86,0.00,,,0.08,,2013-02-05 19:21:00,
2013-02-05 11:31:00,50.0,44.0,29.83,SE,126,4.0,11.0,80,0.00,,,0.08,,2013-02-05 19:31:00,
2013-02-05 11:42:00,50.0,44.0,29.83,SE,126,4.0,11.0,80,0.00,,,0.08,,2013-02-05 19:42:00,
2013-02-05 11:52:00,50.0,44.0,29.83,South,172,4.0,10.0,80,0.00,,,0.08,,2013-02-05 19:52:00,
2013-02-05 12:01:00,50.0,44.0,29.83,East,100,4.0,9.0,79,0.00,,,0.08,,2013-02-05 20:01:00,
2013-02-05 12:11:00,50.0,44.0,29.83,East,100,4.0,9.0,79,0.00,,,0.08,,2013-02-05 20:11:00,
2013-02-05 12:21:00,49.0,43.0,29.83,SE,140,4.0,12.0,79,0.00,,,0.08,,2013-02-05 20:21:00,
2013-02-05 12:32:00,49.0,43.0,29.83,SSE,166,3.0,12.0,81,0.00,,,0.08,,2013-02-05 20:32:00,
2013-02-05 12:41:00,49.0,43.0,29.83,SSE,166,3.0,12.0,81,0.00,,,0.08,,2013-02-05 20:41:00,
2013-02-05 12:52:00,48.0,43.0,29.83,SE,134,3.0,9.0,84,0.00,,,0.08,,2013-02-05 20:52:00,
2013-02-05 13:01:00,48.0,43.0,29.82,SSE,157,4.0,10.0,84,0.00,,,0.08,,2013-02-05 21:01:00,
2013-02-05 13:11:00,48.0,43.0,29.82,SSE,157,4.0,10.0,84,0.00,,,0.08,,2013-02-05 21:11:00,
2013-02-05 13:21:00,48.0,43.0,29.82,SE,132,4.0,9.0,84,0.00,,,0.08,,2013-02-05 21:21:00,
2013-02-05 13:31:00,49.0,43.0,29.81,South,181,3.0,19.0,80,0.00,,,0.08,,2013-02-05 21:31:00,
2013-02-05 13:41:00,49.0,43.0,29.81,South,181,3.0,19.0,80,0.00,,,0.08,,2013-02-05 21:41:00,
2013-02-05 13:51:00,50.0,42.0,29.81,South,190,4.0,14.0,74,0.00,,,0.08,,2013-02-05 21:51:00,
2013-02-05 14:01:00,52.0,42.0,29.81,SSW,203,5.0,18.0,69,0.00,,,0.08,,2013-02-05 22:01:00,
2013-02-05 14:11:00,52.0,42.0,29.81,SSW,203,5.0,18.0,69,0.00,,,0.08,,2013-02-05 22:11:00,
2013-02-05 14:21:00,52.0,43.0,29.81,SSE,153,4.0,18.0,70,0.00,,,0.08,,2013-02-05 22:21:00,
2013-02-05 14:31:00,52.0,43.0,29.81,South,172,5.0,12.0,70,0.00,,,0.08,,2013-02-05 22:31:00,
2013-02-05 14:41:00,52.0,43.0,29.81,South,172,5.0,12.0,70,0.00,,,0.08,,2013-02-05 22:41:00,
2013-02-05 14:51:00,52.0,43.0,29.81,South,172,5.0,12.0,70,0.00,,,0.08,,2013-02-05 22:51:00,
2013-02-05 15:01:00,50.0,42.0,29.81,SSE,162,6.0,18.0,74,0.00,,,0.08,,2013-02-05 23:01:00,
2013-02-05 15:11:00,50.0,42.0,29.81,SSE,162,6.0,18.0,74,0.00,,,0.08,,2013-02-05 23:11:00,
2013-02-05 15:21:00,49.0,42.0,29.81,SSE,161,5.0,12.0,76,0.00,,,0.08,,2013-02-05 23:21:00,
2013-02-05 15:32:00,49.0,42.0,29.81,SE,134,2.0,13.0,78,0.00,,,0.08,,2013-02-05 23:32:00,
2013-02-05 15:41:00,49.0,42.0,29.81,SE,134,2.0,13.0,78,0.00,,,0.08,,2013-02-05 23:41:00,
2013-02-05 15:52:00,49.0,42.0,29.82,SE,142,1.0,11.0,77,0.00,,,0.08,,2013-02-05 23:52:00,
2013-02-05 16:01:00,48.0,41.0,29.82,ESE,121,5.0,14.0,78,0.00,,,0.08,,2013-02-06 00:01:00,
2013-02-05 16:11:00,48.0,41.0,29.82,ESE,121,5.0,14.0,78,0.00,,,0.08,,2013-02-06 00:11:00,
2013-02-05 16:21:00,47.0,41.0,29.81,SSE,162,4.0,8.0,81,0.00,,,0.08,,2013-02-06 00:21:00,
2013-02-05 16:31:00,47.0,42.0,29.82,SE,126,3.0,9.0,84,0.00,,,0.08,,2013-02-06 00:31:00,
2013-02-05 16:41:00,47.0,42.0,29.82,SE,126,3.0,9.0,84,0.00,,,0.08,,2013-02-06 00:41:00,
2013-02-05 16:51:00,47.0,43.0,29.82,South,171,4.0,10.0,86,0.00,,,0.08,,2013-02-06 00:51:00,
2013-02-05 17:01:00,46.0,43.0,29.82,SW,232,2.0,7.0,88,0.00,,,0.08,,2013-02-06 01:01:00,
2013-02-05 17:11:00,46.0,43.0,29.82,SW,232,2.0,7.0,88,0.00,,,0.08,,2013-02-06 01:11:00,
2013-02-05 17:21:00,46.0,42.0,29.82,East,84,3.0,10.0,86,0.00,,,0.08,,2013-02-06 01:21:00,
2013-02-05 17:32:00,46.0,43.0,29.82,SSE,147,5.0,15.0,88,0.01,,,0.09,,2013-02-06 01:32:00,
2013-02-05 17:41:00,46.0,43.0,29.82,SSE,147,5.0,15.0,88,0.01,,,0.09,,2013-02-06 01:41:00,
2013-02-05 17:52:00,45.0,41.0,29.82,SSE,153,3.0,10.0,87,0.01,,,0.09,,2013-02-06 01:52:00,
2013-02-05 18:01:00,45.0,42.0,29.83,SSE,160,1.0,6.0,88,0.02,,,0.10,,2013-02-06 02:01:00,
2013-02-05 18:11:00,45.0,42.0,29.83,SSE,160,1.0,6.0,88,0.02,,,0.10,,2013-02-06 02:11:00,
2013-02-05 18:21:00,44.0,41.0,29.83,ESE,105,2.0,6.0,90,0.02,,,0.10,,2013-02-06 02:21:00,
2013-02-05 18:31:00,44.0,42.0,29.82,SE,146,4.0,8.0,91,0.01,,,0.10,,2013-02-06 02:31:00,
2013-02-05 18:41:00,44.0,42.0,29.82,SE,146,4.0,8.0,91,0.01,,,0.10,,2013-02-06 02:41:00,
2013-02-05 18:52:00,44.0,41.0,29.82,ESE,121,3.0,10.0,90,0.01,,,0.10,,2013-02-06 02:52:00,
2013-02-05 19:02:00,44.0,41.0,29.83,ESE,112,2.0,9.0,90,0.00,,,0.10,,2013-02-06 03:02:00,
2013-02-05 19:11:00,44.0,41.0,29.83,ESE,112,2.0,9.0,90,0.00,,,0.10,,2013-02-06 03:11:00,
2013-02-05 19:21:00,44.0,42.0,29.83,SE,146,4.0,9.0,92,0.00,,,0.10,,2013-02-06 03:21:00,
2013-02-05 19:31:00,44.0,42.0,29.83,SE,130,4.0,8.0,91,0.00,,,0.10,,2013-02-06 03:31:00,
2013-02-05 19:42:00,44.0,42.0,29.83,SE,130,4.0,8.0,91,0.00,,,0.10,,2013-02-06 03:42:00,
2013-02-05 19:52:00,44.0,42.0,29.83,SE,128,3.0,8.0,91,0.00,,,0.10,,2013-02-06 03:52:00,
2013-02-05 20:01:00,45.0,42.0,29.83,ESE,114,6.0,14.0,90,0.00,,,0.10,,2013-02-06 04:01:00,
2013-02-05 20:11:00,45.0,42.0,29.83,ESE,114,6.0,14.0,90,0.00,,,0.10,,2013-02-06 04:11:00,
2013-02-05 20:21:00,45.0,42.0,29.83,ESE,109,5.0,11.0,89,0.00,,,0.10,,2013-02-06 04:21:00,
2013-02-05 20:31:00,45.0,42.0,29.83,SSE,163,6.0,15.0,89,0.00,,,0.10,,2013-02-06 04:31:00,
2013-02-05 20:41:00,45.0,42.0,29.83,SSE,163,6.0,15.0,89,0.00,,,0.10,,2013-02-06 04:41:00,
2013-02-05 20:52:00,44.0,41.0,29.84,SSE,153,6.0,13.0,89,0.00,,,0.10,,2013-02-06 04:52:00,
2013-02-05 21:01:00,44.0,41.0,29.85,SSE,163,5.0,13.0,89,0.00,,,0.10,,2013-02-06 05:01:00,
2013-02-05 21:11:00,44.0,41.0,29.85,SSE,163,5.0,13.0,89,0.00,,,0.10,,2013-02-06 05:11:00,
2013-02-05 21:22:00,44.0,41.0,29.85,East,98,4.0,12.0,88,0.00,,,0.10,,2013-02-06 05:22:00,
2013-02-05 21:31:00,44.0,41.0,29.85,SE,136,5.0,15.0,89,0.00,,,0.10,,2013-02-06 05:31:00,
2013-02-05 21:41:00,44.0,41.0,29.85,SE,136,5.0,15.0,89,0.00,,,0.10,,2013-02-06 05:41:00,
2013-02-05 21:53:00,44.0,41.0,29.86,SSW,211,4.0,10.0,89,0.00,,,0.10,,2013-02-06 05:53:00,
2013-02-05 22:01:00,44.0,41.0,29.86,SSW,211,4.0,10.0,89,0.00,,,0.10,,2013-02-06 06:01:00,
2013-02-05 22:11:00,44.0,41.0,29.86,SSW,211,4.0,10.0,89,0.00,,,0.10,,2013-02-06 06:11:00,
2013-02-05 22:21:00,44.0,41.0,29.86,SSE,158,2.0,11.0,89,0.00,,,0.10,,2013-02-06 06:21:00,
2013-02-05 22:31:00,43.0,40.0,29.87,South,170,3.0,8.0,89,0.00,,,0.10,,2013-02-06 06:31:00,
2013-02-05 22:42:00,43.0,40.0,29.87,South,170,3.0,8.0,89,0.00,,,0.10,,2013-02-06 06:42:00,
2013-02-05 22:52:00,43.0,40.0,29.87,South,171,4.0,9.0,89,0.00,,,0.10,,2013-02-06 06:52:00,
2013-02-05 23:01:00,43.0,40.0,29.87,SE,141,7.0,16.0,89,0.00,,,0.10,,2013-02-06 07:01:00,
2013-02-05 23:11:00,43.0,40.0,29.87,SE,141,7.0,16.0,89,0.00,,,0.10,,2013-02-06 07:11:00,
2013-02-05 23:21:00,43.0,40.0,29.88,East,90,5.0,14.0,89,0.00,,,0.10,,2013-02-06 07:21:00,
2013-02-05 23:32:00,44.0,41.0,29.89,East,93,4.0,9.0,88,0.00,,,0.10,,2013-02-06 07:32:00,
2013-02-05 23:41:00,44.0,41.0,29.89,East,93,4.0,9.0,88,0.00,,,0.10,,2013-02-06 07:41:00,
2013-02-05 23:52:00,44.0,41.0,29.89,SSE,153,4.0,11.0,88,0.00,,,0.10,,2013-02-06 07:52:00,